Orbital Elements at Epoch 2459000.5 (2020-May-31.0) TDB
Reference: JPL 20 (heliocentric ecliptic J2000)
Element | Value | Uncertainty (1-sigma) | Units |
e | .1214077877292427 | 3.488e-08 | |
a | 2.374918449078482 | 9.2588e-09 | au |
q | 2.086584854138499 | 8.1534e-08 | au |
i | 6.064187190645503 | 3.7835e-06 | deg |
node | 154.1078555819749 | 3.1826e-05 | deg |
peri | 355.9008702682461 | 3.6814e-05 | deg |
M | 188.201278988657 | 2.1014e-05 | deg |
tp | 2459638.453323478385 (2022-Feb-27.95332348) | 8.0435e-05 | TDB |
period | 1336.815519348686 3.66 | 7.8175e-06 2.14e-08 | d yr |
n | .2692966941133333 | 1.5748e-09 | deg/d |
Q | 2.663252044018464 | 1.0383e-08 | au |
|
| | Orbit Determination Parameters
Additional Information
|